| time (UTC) | temp F | wind direction | speed knots | gust knots | rain 1hr in | rain 24hr in | rain mn in | humidity % | barometer mb |
| 20260505051511 | 54 | 245 | 0.0 | 0.9 | 0.00 | 0.00 | 0.00 | 74 | 1010.6 |
| 20260505041509 | 59 | 247 | 0.0 | 3.5 | 0.00 | 0.00 | 0.00 | 66 | 1010.6 |
| 20260505040006 | 59 | 231 | 0.9 | 3.5 | 0.00 | 0.00 | 0.00 | 65 | 1010.4 |
| 20260505034504 | 59 | 221 | 0.9 | 2.6 | 0.00 | 0.00 | 0.00 | 64 | 1010.3 |
| 20260505033012 | 59 | 253 | 1.7 | 3.5 | 0.00 | 0.00 | 0.00 | 63 | 1010.3 |
| 20260505031515 | 58 | 228 | 0.0 | 1.7 | 0.00 | 0.00 | 0.00 | 65 | 1010.3 |
| 20260505030016 | 57 | 223 | 0.0 | 2.6 | 0.00 | 0.00 | 0.00 | 67 | 1010.5 |
| 20260505024514 | 58 | 228 | 0.0 | 0.9 | 0.00 | 0.00 | 0.00 | 65 | 1010.4 |
| 20260505023009 | 60 | 229 | 0.0 | 2.6 | 0.00 | 0.00 | 0.00 | 62 | 1010.4 |
| 20260505021509 | 60 | 245 | 0.9 | 2.6 | 0.00 | 0.00 | 0.00 | 60 | 1010.4 |
| 20260505020008 | 60 | 148 | 0.0 | 2.6 | 0.00 | 0.00 | 0.00 | 60 | 1010.6 |
| 20260505014529 | 61 | 248 | 2.6 | 4.3 | 0.00 | 0.00 | 0.00 | 59 | 1010.6 |
| 20260505013026 | 61 | 259 | 3.5 | 5.2 | 0.00 | 0.00 | 0.00 | 58 | 1010.6 |
| 20260505011526 | 62 | 232 | 3.5 | 7.0 | 0.00 | 0.00 | 0.00 | 56 | 1010.3 |
| 20260505010017 | 62 | 278 | 4.3 | 7.8 | 0.00 | 0.00 | 0.00 | 55 | 1010.1 |
| 20260505004516 | 62 | 250 | 3.5 | 7.8 | 0.00 | 0.00 | 0.00 | 54 | 1010.1 |
| 20260505003011 | 63 | 261 | 4.3 | 10.4 | 0.00 | 0.00 | 0.00 | 52 | 1010.1 |
| 20260505001510 | 64 | 246 | 5.2 | 12.2 | 0.00 | 0.00 | 0.00 | 49 | 1010.0 |
| 20260505000026 | 65 | 266 | 5.2 | 9.6 | 0.00 | 0.00 | 0.00 | 47 | 1009.9 |
| 20260504234519 | 66 | 236 | 4.3 | 13.9 | 0.00 | 0.00 | 0.00 | 45 | 1010.0 |
| 20260504233020 | 66 | 256 | 5.2 | 8.7 | 0.00 | 0.00 | 0.00 | 45 | 1009.9 |
| 20260504231519 | 66 | 271 | 3.5 | 7.0 | 0.00 | 0.00 | 0.00 | 46 | 1010.1 |
| 20260504230019 | 67 | 248 | 3.5 | 8.7 | 0.00 | 0.00 | 0.00 | 45 | 1010.0 |
| 20260504224517 | 68 | 158 | 5.2 | 12.2 | 0.00 | 0.00 | 0.00 | 44 | 1010.0 |
| 20260504223015 | 69 | 179 | 2.6 | 6.1 | 0.00 | 0.00 | 0.00 | 44 | 1010.0 |
| 20260504221514 | 69 | 275 | 7.8 | 13.9 | 0.00 | 0.00 | 0.00 | 41 | 1010.0 |
| 20260504220006 | 70 | 233 | 2.6 | 9.6 | 0.00 | 0.00 | 0.00 | 42 | 1010.0 |
| 20260504214506 | 70 | 216 | 4.3 | 11.3 | 0.00 | 0.00 | 0.00 | 40 | 1010.0 |
| 20260504213010 | 70 | 257 | 5.2 | 9.6 | 0.00 | 0.00 | 0.00 | 42 | 1010.0 |
| 20260504211508 | 70 | 164 | 5.2 | 13.0 | 0.00 | 0.00 | 0.00 | 38 | 1010.0 |
| 20260504210020 | 70 | 251 | 6.1 | 12.2 | 0.00 | 0.00 | 0.00 | 40 | 1009.9 |
| 20260504204518 | 70 | 217 | 4.3 | 11.3 | 0.00 | 0.00 | 0.00 | 39 | 1010.0 |
| 20260504203016 | 71 | 280 | 7.8 | 11.3 | 0.00 | 0.00 | 0.00 | 39 | 1010.0 |
| 20260504201512 | 72 | 251 | 4.3 | 11.3 | 0.00 | 0.00 | 0.00 | 37 | 1010.1 |
| 20260504200010 | 71 | 245 | 6.1 | 13.0 | 0.00 | 0.00 | 0.00 | 36 | 1010.4 |
| 20260504194508 | 71 | 258 | 7.0 | 9.6 | 0.00 | 0.00 | 0.00 | 36 | 1010.6 |
| 20260504193003 | 72 | 245 | 4.3 | 12.2 | 0.00 | 0.00 | 0.00 | 39 | 1010.8 |
| 20260504191526 | 71 | 259 | 7.8 | 14.8 | 0.00 | 0.00 | 0.00 | 36 | 1010.9 |
| 20260504190020 | 71 | 257 | 7.0 | 13.9 | 0.00 | 0.00 | 0.00 | 37 | 1011.1 |
| 20260504184523 | 71 | 266 | 6.1 | 13.9 | 0.00 | 0.00 | 0.00 | 39 | 1011.3 |
| 20260504183015 | 70 | 225 | 5.2 | 11.3 | 0.00 | 0.00 | 0.00 | 36 | 1011.3 |
| 20260504181514 | 70 | 248 | 2.6 | 11.3 | 0.00 | 0.00 | 0.00 | 38 | 1011.3 |
| 20260504180014 | 69 | 250 | 6.1 | 9.6 | 0.00 | 0.00 | 0.00 | 38 | 1011.7 |
| 20260504174508 | 70 | 252 | 8.7 | 13.0 | 0.00 | 0.00 | 0.00 | 39 | 1011.9 |
| 20260504173004 | 69 | 274 | 4.3 | 11.3 | 0.00 | 0.00 | 0.00 | 38 | 1012.0 |
| 20260504171524 | 69 | 245 | 5.2 | 13.0 | 0.00 | 0.00 | 0.00 | 39 | 1012.3 |
| 20260504081515 | 41 | 5 | 0.0 | 0.9 | 0.00 | 0.00 | 0.00 | 71 | 1014.9 |